FW6014 Weather Reports


Display with metric or nautical units.
time (UTC)temp
F
wind
direction
speed
MPH
gust
MPH
rain 1hr
in
rain 24hr
in
rain mn
in
humidity
%
barometer
mb
20260503210101 51 276 2.0 6.0 0.00 0.07 0.06 44 1006.1
20260503210002 51 276 2.0 6.0 0.00 0.07 0.06 41 1006.8
20260503205601 52 276 2.0 7.0 0.00 0.07 0.06 42 1005.9
20260503204608 52 276 2.0 5.0 0.00 0.07 0.06 41 1006.6
20260503204602 52 276 2.0 5.0 0.00 0.07 0.06 41 1005.7
20260503204103 53 276 2.0 7.0 0.00 0.07 0.06 42 1005.8
20260503203102 52 276 2.0 7.0 0.00 0.07 0.06 43 1005.3
20260503203002 52 276 1.0 7.0 0.00 0.07 0.06 43 1006.4
20260503202100 53 276 3.0 5.0 0.00 0.07 0.06 41 1005.6
20260503201605 52 276 2.0 7.0 0.00 0.07 0.06 42 1006.5
20260503201601 53 276 3.0 7.0 0.00 0.07 0.06 42 1005.6
20260503201101 53 276 3.0 9.0 0.00 0.07 0.06 42 1005.8
20260503200101 53 276 3.0 8.0 0.00 0.07 0.06 42 1005.4
20260503200003 52 276 2.0 6.0 0.00 0.07 0.06 41 1006.4
20260503195601 52 276 2.0 5.0 0.00 0.07 0.06 43 1005.4
20260503195102 52 276 3.0 7.0 0.00 0.07 0.06 42 1005.6
20260503194101 55 276 2.0 7.0 0.00 0.07 0.06 40 1005.4
20260503193603 55 276 2.0 5.0 0.00 0.07 0.06 43 1005.4
20260503193102 54 276 2.0 6.0 0.00 0.07 0.06 42 1005.4
20260503193003 54 276 2.0 6.0 0.00 0.07 0.06 42 1006.4
20260503192603 54 276 2.0 6.0 0.00 0.07 0.06 42 1005.3
20260503192102 54 276 2.0 6.0 0.00 0.07 0.06 42 1005.4
20260503191609 53 276 2.0 6.0 0.00 0.07 0.06 45 1006.4
20260503191603 54 276 2.0 6.0 0.00 0.07 0.06 45 1005.4
20260503191102 54 276 3.0 7.0 0.00 0.07 0.06 43 1005.4
20260503190601 54 276 2.0 12.0 0.00 0.07 0.06 45 1005.6
20260503190011 53 276 1.0 10.0 0.00 0.07 0.06 49 1006.8
20260503185601 54 276 3.0 10.0 0.00 0.07 0.06 45 1005.7
20260503185103 54 276 2.0 7.0 0.00 0.07 0.06 47 1005.6
20260503184607 53 276 2.0 7.0 0.00 0.07 0.06 47 1006.7
20260503184602 53 276 3.0 7.0 0.00 0.07 0.06 47 1005.7
20260503183601 52 276 2.0 6.0 0.00 0.07 0.06 48 1005.8
20260503183102 51 276 2.0 6.0 0.00 0.07 0.06 48 1005.7
20260503183011 51 276 1.0 6.0 0.00 0.07 0.06 47 1006.7
20260503182602 52 276 2.0 5.0 0.00 0.07 0.06 50 1005.7
20260503181624 50 276 2.0 6.0 0.00 0.07 0.06 51 1006.7
20260503181602 51 276 2.0 6.0 0.00 0.07 0.06 51 1005.8
20260503181102 51 276 2.0 9.0 0.00 0.07 0.06 52 1005.7
20260503180601 51 276 3.0 9.0 0.00 0.07 0.06 49 1005.7
20260503180002 50 276 2.0 7.0 0.00 0.07 0.06 52 1006.7
20260503175601 51 276 2.0 10.0 0.00 0.07 0.06 51 1005.7
20260503175101 50 276 2.0 10.0 0.00 0.07 0.06 52 1005.6
20260503174606 50 276 2.0 5.0 0.00 0.07 0.06 51 1006.7
20260503174601 50 276 2.0 5.0 0.00 0.07 0.06 51 1005.7
20260503174101 50 276 3.0 5.0 0.00 0.07 0.06 54 1005.4
20260503173603 50 276 3.0 5.0 0.00 0.07 0.06 52 1005.6
20260503173201 51 276 3.0 5.0 0.00 0.07 0.06 51 1006.7
20260503173102 51 276 2.0 5.0 0.00 0.07 0.06 51 1005.6
20260503172602 53 276 2.0 4.0 0.00 0.07 0.06 51 1005.6
20260503172102 53 276 2.0 6.0 0.00 0.07 0.06 55 1005.4
20260503171602 52 276 3.0 6.0 0.00 0.07 0.06 52 1005.4
20260503171557 51 276 3.0 6.0 0.00 0.07 0.06 52 1006.5
20260503171102 52 276 3.0 7.0 0.00 0.07 0.06 53 1005.6
20260503170159 51 276 2.0 6.0 0.00 0.07 0.06 56 1006.7
20260503160154 48 276 2.0 10.0 0.00 0.07 0.06 67 1007.2
20260503150601 43 276 2.0 4.0 0.00 0.07 0.06 84 1006.8
20260503140130 39 276 1.0 3.0 0.00 0.07 0.06 92 1008.6
20260503131100 39 276 0.0 0.0 0.01 0.07 0.06 95 1007.7
20260503130602 39 276 0.0 0.0 0.01 0.07 0.06 95 1007.7
20260503130131 38 276 0.0 0.0 0.01 0.07 0.06 95 1008.9
20260503120130 38 276 0.0 0.0 0.02 0.06 0.05 95 1009.3
20260503110548 38 276 0.0 0.0 0.02 0.04 0.03 95 1008.2
20260503110109 38 276 0.0 0.0 0.02 0.04 0.03 95 1009.3
20260503081600 39 276 0.0 1.0 0.00 0.01 0.00 92 1009.9
20260503081529 40 276 0.0 1.0 0.00 0.01 0.00 92 1008.8
20260503080529 40 276 0.0 1.0 0.00 0.01 0.00 93 1008.9
20260503080151 39 276 0.0 1.0 0.00 0.01 0.00 93 1010.1
20260503072529 40 276 0.0 0.0 0.00 0.01 0.00 93 1009.1
20260503071525 39 276 0.0 0.0 0.00 0.01 0.00 94 1010.5
20260503071031 40 276 0.0 0.0 0.00 0.01 0.00 94 1009.4
20260503070529 39 276 0.0 0.0 0.00 0.01 0.00 94 1009.4
20260503070114 39 276 0.0 0.0 0.00 0.01 0.00 94 1010.5
20260503060115 39 276 0.0 0.0 0.00 0.01 0.01 94 1011.0
20260503055023 39 276 0.0 0.0 0.00 0.01 0.00 94 1010.0
20260503054655 39 276 0.0 0.0 0.00 0.01 0.01 94 1011.1
20260503054524 39 276 0.0 0.0 0.00 0.01 0.00 94 1010.0
20260503054023 39 276 0.0 0.0 0.00 0.01 0.00 94 1010.0
20260503053521 39 276 0.0 0.0 0.00 0.01 0.00 95 1010.1
20260503053052 39 276 0.0 0.0 0.00 0.01 0.01 95 1011.3
20260503053018 39 276 0.0 0.0 0.00 0.01 0.00 95 1010.2
20260503052014 39 276 0.0 0.0 0.00 0.01 0.00 94 1010.4
20260503051636 39 276 0.0 0.0 0.00 0.01 0.01 94 1011.6
20260503051513 39 276 0.0 0.0 0.00 0.01 0.00 94 1010.4
20260503051010 39 276 0.0 0.0 0.00 0.01 0.00 94 1010.5
20260503050509 39 276 0.0 0.0 0.00 0.01 0.00 94 1010.5
20260503050033 39 276 0.0 1.0 0.00 0.01 0.01 94 1011.7
20260503050007 39 276 0.0 1.0 0.00 0.01 0.00 94 1010.6
20260503045507 39 276 0.0 1.0 0.01 0.01 0.00 94 1010.6
20260503045004 39 276 0.0 1.0 0.01 0.01 0.00 94 1010.7
20260503044632 39 276 0.0 0.0 0.01 0.01 0.01 94 1011.9
20260503044502 39 276 0.0 0.0 0.01 0.01 0.00 94 1010.7
20260503044003 39 276 0.0 0.0 0.01 0.01 0.00 94 1010.8
20260503043503 39 276 0.0 1.0 0.01 0.01 0.00 94 1010.9
20260503043018 39 276 0.0 1.0 0.01 0.01 0.01 94 1012.1
20260503043001 39 276 0.0 1.0 0.01 0.01 0.00 94 1010.9
20260503042001 40 276 0.0 0.0 0.01 0.01 0.00 94 1010.9
20260503041614 39 276 0.0 0.0 0.01 0.01 0.01 94 1012.3
20260503041501 40 276 0.0 0.0 0.01 0.01 0.00 94 1011.1
20260503040005 40 276 0.0 0.0 0.01 0.01 0.00 94 1011.1
20260503035500 40 276 0.0 0.0 0.00 0.00 0.00 94 1011.1
20260503034004 40 276 0.0 0.0 0.00 0.00 0.00 94 1011.2
20260503033500 40 276 0.0 0.0 0.00 0.00 0.00 94 1011.2
20260503033201 39 276 0.0 0.0 0.00 0.00 0.00 94 1012.4
20260503033002 40 276 0.0 0.0 0.00 0.00 0.00 94 1011.2
20260503032501 40 276 0.0 0.0 0.00 0.00 0.00 93 1011.3
20260503031600 40 276 0.0 0.0 0.00 0.00 0.00 93 1012.6
20260503031501 40 276 0.0 0.0 0.00 0.00 0.00 93 1011.3
20260503030001 40 276 0.0 0.0 0.00 0.00 0.00 93 1011.5
20260503025501 40 276 0.0 0.0 0.00 0.00 0.00 93 1011.5
20260503025001 40 276 0.0 0.0 0.00 0.00 0.00 93 1011.6
20260503024541 40 276 0.0 0.0 0.00 0.00 0.00 93 1012.8
20260503024502 40 276 0.0 0.0 0.00 0.00 0.00 93 1011.6
20260503023503 40 276 0.0 0.0 0.00 0.00 0.00 93 1011.7
20260503023132 40 276 0.0 1.0 0.00 0.00 0.00 93 1012.8
20260503023003 41 276 0.0 1.0 0.00 0.00 0.00 93 1011.6
20260503022503 41 276 0.0 1.0 0.00 0.00 0.00 92 1011.5
20260503022002 41 276 0.0 0.0 0.00 0.00 0.00 92 1011.6
20260503021532 40 276 0.0 0.0 0.00 0.00 0.00 92 1012.9
20260503021501 41 276 0.0 0.0 0.00 0.00 0.00 92 1011.7
20260503021000 41 276 0.0 0.0 0.00 0.00 0.00 92 1011.8
20260503020502 41 276 0.0 0.0 0.00 0.00 0.00 92 1011.8
20260503020131 41 276 0.0 0.0 0.00 0.00 0.00 92 1013.1
20260503020002 41 276 0.0 0.0 0.00 0.00 0.00 92 1012.0
20260503015503 41 276 0.0 0.0 0.00 0.00 0.00 92 1011.9
20260503015001 41 276 0.0 0.0 0.00 0.00 0.00 92 1012.0
20260503014530 41 276 0.0 0.0 0.00 0.00 0.00 92 1013.3
20260503014502 41 276 0.0 0.0 0.00 0.00 0.00 92 1012.1
20260503014001 41 276 0.0 0.0 0.00 0.00 0.00 92 1012.1
20260503013502 41 276 0.0 0.0 0.00 0.00 0.00 92 1012.0
20260503012501 41 276 0.0 0.0 0.00 0.00 0.00 91 1012.0
20260503012002 42 276 0.0 0.0 0.00 0.00 0.00 91 1012.1
20260503011001 42 276 0.0 1.0 0.00 0.00 0.00 91 1011.9
20260503010502 42 276 0.0 1.0 0.00 0.00 0.00 90 1011.8
20260503005502 42 276 0.0 0.0 0.00 0.00 0.00 90 1011.8
20260503005001 42 276 0.0 0.0 0.00 0.00 0.00 90 1012.0
20260503004002 43 276 0.0 0.0 0.00 0.00 0.00 89 1012.0
20260503003503 43 276 0.0 1.0 0.00 0.00 0.00 88 1012.0
20260503003126 42 276 0.0 1.0 0.00 0.00 0.00 88 1013.1
20260503003000 43 276 0.0 1.0 0.00 0.00 0.00 88 1011.9
20260503002501 43 276 0.0 0.0 0.00 0.00 0.00 89 1011.9
20260503002001 43 276 0.0 0.0 0.00 0.00 0.00 89 1011.9
20260503001514 42 276 0.0 0.0 0.00 0.00 0.00 88 1013.1
20260503001502 43 276 0.0 0.0 0.00 0.00 0.00 88 1011.9
20260503001001 43 276 0.0 0.0 0.00 0.00 0.00 88 1011.8
20260503000502 43 276 0.0 0.0 0.00 0.00 0.00 88 1011.8
20260503000107 43 276 0.0 0.0 0.00 0.00 0.00 88 1012.9
20260503000001 43 276 0.0 0.0 0.00 0.00 0.00 87 1011.8
20260502235502 43 276 0.0 0.0 0.00 0.00 0.00 87 1011.8
20260502235001 43 276 0.0 1.0 0.00 0.00 0.00 87 1011.8
20260502234509 43 276 0.0 1.0 0.00 0.00 0.00 87 1012.9
20260502234502 43 276 0.0 1.0 0.00 0.00 0.00 87 1011.8
20260502234002 43 276 0.0 0.0 0.00 0.00 0.00 87 1011.8
20260502233500 43 276 0.0 0.0 0.00 0.00 0.00 87 1011.7
20260502233103 43 276 0.0 3.0 0.00 0.00 0.00 87 1012.9
20260502233003 43 276 0.0 3.0 0.00 0.00 0.00 87 1011.8
20260502232502 44 276 0.0 3.0 0.00 0.00 0.00 86 1011.7
20260502232001 44 276 0.0 0.0 0.00 0.00 0.00 86 1011.7
20260502231506 43 276 0.0 0.0 0.00 0.00 0.00 86 1012.7
20260502231500 44 276 0.0 0.0 0.00 0.00 0.00 86 1011.6
20260502231001 44 276 0.0 0.0 0.00 0.00 0.00 86 1011.7
20260502230501 44 276 0.0 0.0 0.00 0.00 0.00 86 1011.9
20260502230003 44 276 0.0 0.0 0.00 0.00 0.00 86 1011.8
20260502225501 44 276 0.0 0.0 0.00 0.00 0.00 85 1011.8
20260502224512 43 276 0.0 1.0 0.00 0.00 0.00 86 1012.9
20260502224504 44 276 0.0 2.0 0.00 0.00 0.00 86 1011.8
20260502221502 44 276 0.0 2.0 0.00 0.00 0.00 84 1012.8
20260502221453 44 276 0.0 2.0 0.00 0.00 0.00 84 1011.7
20260502220954 45 276 0.0 2.0 0.00 0.00 0.00 83 1011.8
20260502220453 45 276 0.0 1.0 0.00 0.00 0.00 83 1011.7
20260502220106 44 276 0.0 1.0 0.00 0.00 0.00 82 1012.8
20260502215956 45 276 0.0 1.0 0.00 0.00 0.00 83 1011.7
20260502215452 45 276 0.0 1.0 0.00 0.00 0.00 83 1011.8
20260502214951 45 276 0.0 1.0 0.00 0.00 0.00 83 1011.8
20260502213951 45 276 0.0 3.0 0.00 0.00 0.00 83 1011.7
20260502213448 45 276 0.0 0.0 0.00 0.00 0.00 82 1011.7
20260502211944 44 276 0.0 1.0 0.00 0.00 0.00 83 1011.8
20260502211502 44 276 0.0 2.0 0.00 0.00 0.00 83 1012.8
20260502211442 44 276 0.0 2.0 0.00 0.00 0.00 83 1011.7
20260502210436 44 276 1.0 3.0 0.00 0.00 0.00 84 1011.7